Home > Time Zones > World Clock > Weather > Iran > Ahvaz > Past weeks

Flag for Iran Weather past 2 weeks in Ahvaz, Iran

Now
66 °F

Clear.


Feels Like: 66 °F
Forecast: 57 / 81 °F
Wind: 5 mph from Southwest

Location: Ahwaz

Current Time: Mar 27, 2015 at 3:10:17 AM

Latest Report: Mar 27, 2015 at 2:30 AM


Visibility: 5 mi

Pressure: 29.98 "Hg

Humidity: 73%

Dew point: 57 °F

Location of AhvazLocation

Historic Weather in Ahvaz — Graph

°F

Ahvaz temperature yesterday

Maximum temperature yesterday: 81 °F (at 2:00 PM)
Minimum temperature yesterday: 61 °F (at 4:30 AM)
Average temperature yesterday: 71 °F

Past Weeks' High & Low Weather Summary

 TemperatureHumidityPressure
High86 °F (Mar 16, 3:30 PM)100% (Mar 19, 4:30 AM)30.12 "Hg (Mar 19, 4:30 AM)
Low48 °F (Mar 23, 5:30 AM)9% (Mar 12, 4:00 PM)29.80 "Hg (Mar 20, 2:30 AM)
Average70 °F60%29.96 "Hg
* Reported Mar 12 1:30 AM — Mar 27 2:30 AM, Ahvaz, Weather by CustomWeather, © 2015

Note: Actual official high and low records may vary slightly from our data, if they occured in-between our weather recording intervals... More about our weather records

Advertising

Ahvaz weather history for previous 24 hours

 ConditionsComfort  
Time TempWeatherWind HumidityBarometerVisibility
2:30 AM
Fri, Mar 27
66 °FClear.5 mph73%29.98 "Hg5 mi
1:30 AM64 °FPassing clouds.2 mph78%29.98 "Hg5 mi
1:00 AM66 °FPassing clouds.2 mph68%29.98 "HgN/A
12:30 AM68 °FPassing clouds.2 mph64%29.98 "HgN/A
12:00 AM68 °FPassing clouds.No wind69%29.98 "HgN/A
11:30 PM
Thu, Mar 26
68 °FPassing clouds.No wind64%29.98 "HgN/A
11:00 PM68 °FClear.2 mph69%29.95 "Hg10 mi
10:30 PM66 °FClear.No wind73%29.95 "Hg10 mi
10:00 PM66 °FClear.No wind64%29.95 "Hg10 mi
9:30 PM68 °FPassing clouds.No wind60%29.95 "Hg5 mi
9:00 PM70 °FClear.No wind60%29.95 "Hg5 mi
8:30 PM72 °FClear.2 mph57%29.95 "Hg5 mi
8:00 PM73 °FBroken clouds.5 mph57%29.95 "Hg5 mi
7:30 PM73 °FBroken clouds.5 mph57%29.95 "Hg5 mi
7:00 PM75 °FBroken clouds.7 mph54%29.95 "HgN/A
6:30 PM75 °FBroken clouds.5 mph54%29.95 "HgN/A
6:00 PM75 °FMore clouds than sun.5 mph54%29.95 "HgN/A
5:30 PM77 °FMore clouds than sun.5 mph51%29.95 "HgN/A
5:00 PM77 °FMore clouds than sun.7 mph54%29.95 "HgN/A
4:30 PM79 °FMore clouds than sun.7 mph51%29.95 "HgN/A
4:00 PM79 °FMore clouds than sun.5 mph48%29.98 "HgN/A
3:30 PM79 °FMore clouds than sun.9 mph48%29.98 "HgN/A
2:30 PM79 °FMore clouds than sun.7 mph42%29.98 "HgN/A
2:00 PM81 °FMore clouds than sun.5 mph39%29.98 "HgN/A
1:30 PM79 °FMore clouds than sun.No wind39%29.98 "HgN/A
1:00 PM79 °FOvercast.5 mph37%29.98 "HgN/A
12:30 PM77 °FOvercast.No wind36%29.98 "HgN/A
11:30 AM75 °FSunny.5 mph36%29.98 "Hg10 mi
11:00 AM73 °FSunny.7 mph36%29.98 "Hg10 mi
10:30 AM72 °FSunny.9 mph38%29.98 "Hg10 mi
10:00 AM70 °FSunny.9 mph46%29.95 "Hg10 mi
9:30 AM68 °FSunny.7 mph56%29.95 "Hg10 mi
8:30 AM64 °FClear.No wind64%29.95 "Hg5 mi
7:30 AM63 °FClear.5 mph68%29.95 "Hg4 mi
6:30 AM61 °FClear.5 mph77%29.92 "Hg4 mi
5:30 AM61 °FClear.5 mph83%29.92 "Hg4 mi
4:30 AM61 °FClear.No wind83%29.92 "Hg10 mi
3:30 AM63 °FClear.No wind77%29.95 "Hg10 mi
Weather by CustomWeather, © 2015

See weather overviewHow to use our weather pages